Time,TemperatureF,DewpointF,PressureIn,WindDirection,WindDirectionDegrees,WindSpeedMPH,WindSpeedGustMPH,Humidity,HourlyPrecipIn,Conditions,Clouds,dailyrainin,SoftwareType,DateUTC
2013-06-17 00:02:00,57.6,51.1,30.11,North,0,8.0,14.0,79,0.00,,,0.00,meteohub,2013-06-17 07:02:00,
2013-06-17 00:07:00,57.4,50.9,30.11,North,0,4.0,12.0,79,0.00,,,0.00,meteohub,2013-06-17 07:07:00,
2013-06-17 00:12:00,57.2,51.1,30.11,NW,315,3.0,12.0,80,0.00,,,0.00,meteohub,2013-06-17 07:12:00,
2013-06-17 00:17:00,57.0,51.3,30.11,NW,315,4.0,9.0,81,0.00,,,0.00,meteohub,2013-06-17 07:17:00,
2013-06-17 00:22:00,56.8,51.1,30.11,North,0,5.0,7.0,81,0.00,,,0.00,meteohub,2013-06-17 07:22:00,
2013-06-17 00:27:00,56.7,51.3,30.11,NW,315,8.0,8.0,82,0.00,,,0.00,meteohub,2013-06-17 07:27:00,
2013-06-17 00:32:00,56.5,51.4,30.11,NW,315,8.0,10.0,83,0.00,,,0.00,meteohub,2013-06-17 07:32:00,
2013-06-17 00:37:00,56.3,51.3,30.11,North,0,8.0,10.0,83,0.00,,,0.00,meteohub,2013-06-17 07:37:00,
2013-06-17 00:42:00,56.1,51.4,30.10,NW,315,8.0,10.0,84,0.00,,,0.00,meteohub,2013-06-17 07:42:00,
2013-06-17 00:47:00,56.1,51.4,30.11,North,0,11.0,11.0,84,0.00,,,0.00,meteohub,2013-06-17 07:47:00,
2013-06-17 00:52:00,55.9,51.4,30.11,North,0,6.0,11.0,85,0.00,,,0.00,meteohub,2013-06-17 07:52:00,
2013-06-17 00:57:00,55.9,51.4,30.11,North,0,7.0,11.0,85,0.00,,,0.00,meteohub,2013-06-17 07:57:00,
2013-06-17 01:02:00,55.9,51.4,30.11,NW,315,6.0,11.0,85,0.00,,,0.00,meteohub,2013-06-17 08:02:00,
2013-06-17 01:07:00,55.8,51.6,30.10,North,0,9.0,10.0,86,0.00,,,0.00,meteohub,2013-06-17 08:07:00,
2013-06-17 01:12:00,55.6,51.4,30.10,North,0,6.0,10.0,86,0.00,,,0.00,meteohub,2013-06-17 08:12:00,
2013-06-17 01:17:00,55.6,51.4,30.10,NE,45,9.0,11.0,86,0.00,,,0.00,meteohub,2013-06-17 08:17:00,
2013-06-17 01:22:00,55.4,51.6,30.10,North,0,9.0,11.0,87,0.00,,,0.00,meteohub,2013-06-17 08:22:00,
2013-06-17 01:27:00,55.2,51.4,30.10,North,0,9.0,11.0,87,0.00,,,0.00,meteohub,2013-06-17 08:27:00,
2013-06-17 01:32:00,55.0,51.3,30.11,NE,45,4.0,11.0,87,0.00,,,0.00,meteohub,2013-06-17 08:32:00,
2013-06-17 01:37:00,54.7,51.3,30.10,NE,45,4.0,10.0,88,0.00,,,0.00,meteohub,2013-06-17 08:37:00,
2013-06-17 01:42:00,54.7,51.4,30.11,NE,45,8.0,10.0,89,0.00,,,0.00,meteohub,2013-06-17 08:42:00,
2013-06-17 01:47:00,54.9,51.4,30.10,NE,45,4.0,8.0,88,0.00,,,0.00,meteohub,2013-06-17 08:47:00,
2013-06-17 01:52:00,55.0,51.6,30.09,NE,45,4.0,8.0,88,0.00,,,0.00,meteohub,2013-06-17 08:52:00,
2013-06-17 01:57:00,55.2,51.4,30.09,NW,315,4.0,8.0,87,0.00,,,0.00,meteohub,2013-06-17 08:57:00,
2013-06-17 02:02:00,55.4,51.3,30.09,North,0,6.0,7.0,86,0.00,,,0.00,meteohub,2013-06-17 09:02:00,
2013-06-17 02:07:00,55.0,50.9,30.09,NW,315,4.0,8.0,86,0.00,,,0.00,meteohub,2013-06-17 09:07:00,
2013-06-17 02:12:00,54.7,50.9,30.09,West,270,4.0,8.0,87,0.00,,,0.00,meteohub,2013-06-17 09:12:00,
2013-06-17 02:17:00,54.3,50.9,30.09,West,270,2.0,8.0,88,0.00,,,0.00,meteohub,2013-06-17 09:17:00,
2013-06-17 02:22:00,54.0,50.7,30.09,West,270,4.0,4.0,89,0.00,,,0.00,meteohub,2013-06-17 09:22:00,
2013-06-17 02:27:00,53.8,50.9,30.09,NW,315,5.0,5.0,90,0.00,,,0.00,meteohub,2013-06-17 09:27:00,
2013-06-17 02:32:00,53.4,50.9,30.09,NE,45,3.0,6.0,91,0.00,,,0.00,meteohub,2013-06-17 09:32:00,
2013-06-17 02:37:00,53.6,51.1,30.09,NW,315,2.0,6.0,91,0.00,,,0.00,meteohub,2013-06-17 09:37:00,
2013-06-17 02:42:00,53.6,51.1,30.09,West,270,2.0,6.0,91,0.00,,,0.00,meteohub,2013-06-17 09:42:00,
2013-06-17 02:47:00,53.6,51.1,30.09,West,270,2.0,4.0,91,0.00,,,0.00,meteohub,2013-06-17 09:47:00,
2013-06-17 02:52:00,53.8,51.3,30.09,NW,315,2.0,4.0,91,0.00,,,0.00,meteohub,2013-06-17 09:52:00,
2013-06-17 02:57:00,53.6,51.1,30.09,NW,315,2.0,4.0,91,0.00,,,0.00,meteohub,2013-06-17 09:57:00,
2013-06-17 03:02:00,53.6,51.1,30.09,North,0,0.0,3.0,91,0.00,,,0.00,meteohub,2013-06-17 10:02:00,
2013-06-17 03:07:00,53.4,50.9,30.09,West,270,3.0,3.0,91,0.00,,,0.00,meteohub,2013-06-17 10:07:00,
2013-06-17 03:12:00,53.6,51.1,30.09,West,270,3.0,3.0,91,0.00,,,0.00,meteohub,2013-06-17 10:12:00,
2013-06-17 03:17:00,53.6,51.1,30.08,West,270,3.0,3.0,91,0.00,,,0.00,meteohub,2013-06-17 10:17:00,
2013-06-17 03:22:00,53.2,50.7,30.09,West,270,2.0,3.0,91,0.00,,,0.00,meteohub,2013-06-17 10:22:00,
2013-06-17 03:27:00,53.1,50.5,30.09,West,270,2.0,3.0,91,0.00,,,0.00,meteohub,2013-06-17 10:27:00,
2013-06-17 03:32:00,53.1,50.7,30.08,West,270,2.0,3.0,92,0.00,,,0.00,meteohub,2013-06-17 10:32:00,
2013-06-17 03:37:00,53.1,51.1,30.08,West,270,4.0,4.0,93,0.00,,,0.00,meteohub,2013-06-17 10:37:00,
2013-06-17 03:42:00,53.2,51.3,30.08,West,270,3.0,4.0,93,0.00,,,0.00,meteohub,2013-06-17 10:42:00,
2013-06-17 03:47:00,53.4,51.1,30.08,West,270,2.0,4.0,92,0.00,,,0.00,meteohub,2013-06-17 10:47:00,
2013-06-17 03:52:00,53.2,51.3,30.08,West,270,2.0,4.0,93,0.00,,,0.00,meteohub,2013-06-17 10:52:00,
2013-06-17 03:57:00,53.1,50.7,30.07,NW,315,2.0,4.0,92,0.00,,,0.00,meteohub,2013-06-17 10:57:00,
2013-06-17 04:02:00,52.9,50.9,30.08,NW,315,2.0,2.0,93,0.00,,,0.00,meteohub,2013-06-17 11:02:00,
2013-06-17 04:07:00,52.7,50.7,30.07,NW,315,0.0,2.0,93,0.00,,,0.00,meteohub,2013-06-17 11:07:00,
2013-06-17 04:12:00,52.5,50.5,30.07,NW,315,0.0,2.0,93,0.00,,,0.00,meteohub,2013-06-17 11:12:00,
2013-06-17 04:17:00,52.5,50.9,30.07,NW,315,2.0,2.0,94,0.00,,,0.00,meteohub,2013-06-17 11:17:00,
2013-06-17 04:22:00,52.2,50.5,30.07,NW,315,2.0,2.0,94,0.00,,,0.00,meteohub,2013-06-17 11:22:00,
2013-06-17 04:27:00,52.2,50.7,30.07,NW,315,2.0,2.0,95,0.00,,,0.00,meteohub,2013-06-17 11:27:00,
2013-06-17 04:32:00,52.0,50.5,30.07,North,0,2.0,2.0,95,0.00,,,0.00,meteohub,2013-06-17 11:32:00,
2013-06-17 04:37:00,51.8,50.7,30.06,North,0,2.0,2.0,96,0.00,,,0.00,meteohub,2013-06-17 11:37:00,
2013-06-17 04:42:00,51.6,50.7,30.06,North,0,4.0,4.0,97,0.00,,,0.00,meteohub,2013-06-17 11:42:00,
2013-06-17 04:47:00,51.6,50.7,30.07,North,0,4.0,4.0,97,0.00,,,0.00,meteohub,2013-06-17 11:47:00,
2013-06-17 04:52:00,51.6,50.7,30.07,North,0,3.0,4.0,97,0.00,,,0.00,meteohub,2013-06-17 11:52:00,
2013-06-17 04:57:00,51.3,50.4,30.06,North,0,2.0,4.0,97,0.00,,,0.00,meteohub,2013-06-17 11:57:00,
2013-06-17 05:02:00,51.1,50.5,30.06,NW,315,2.0,4.0,98,0.00,,,0.00,meteohub,2013-06-17 12:02:00,
2013-06-17 05:07:00,51.3,50.7,30.06,West,270,2.0,4.0,98,0.00,,,0.00,meteohub,2013-06-17 12:07:00,
2013-06-17 05:12:00,51.3,50.7,30.06,South,180,1.0,3.0,98,0.00,,,0.00,meteohub,2013-06-17 12:12:00,
2013-06-17 05:17:00,51.3,50.7,30.07,West,270,1.0,2.0,98,0.00,,,0.00,meteohub,2013-06-17 12:17:00,
2013-06-17 05:22:00,51.3,50.7,30.06,West,270,2.0,2.0,98,0.00,,,0.00,meteohub,2013-06-17 12:22:00,
2013-06-17 05:26:00,50.9,50.0,30.06,East,90,1.0,3.0,97,0.00,,,0.00,meteohub,2013-06-17 12:26:00,
2013-06-17 05:31:00,50.7,49.8,30.06,East,90,2.0,3.0,97,0.00,,,0.00,meteohub,2013-06-17 12:31:00,
2013-06-17 05:36:00,50.5,50.0,30.06,NE,45,2.0,3.0,98,0.00,,,0.00,meteohub,2013-06-17 12:36:00,
2013-06-17 05:41:00,50.7,50.4,30.06,NE,45,2.0,3.0,99,0.00,,,0.00,meteohub,2013-06-17 12:41:00,
2013-06-17 05:47:00,50.9,50.5,30.06,NE,45,2.0,3.0,99,0.00,,,0.00,meteohub,2013-06-17 12:47:00,
2013-06-17 05:52:00,51.1,50.7,30.07,North,0,3.0,3.0,99,0.00,,,0.00,meteohub,2013-06-17 12:52:00,
2013-06-17 05:57:00,51.3,50.9,30.07,North,0,3.0,3.0,99,0.00,,,0.00,meteohub,2013-06-17 12:57:00,
2013-06-17 06:02:00,51.1,50.7,30.07,North,0,2.0,3.0,99,0.00,,,0.00,meteohub,2013-06-17 13:02:00,
2013-06-17 06:07:00,51.3,50.9,30.06,NW,315,2.0,3.0,99,0.00,,,0.00,meteohub,2013-06-17 13:07:00,
2013-06-17 06:12:00,51.4,51.1,30.06,West,270,2.0,3.0,99,0.00,,,0.00,meteohub,2013-06-17 13:12:00,
2013-06-17 06:17:00,51.6,51.1,30.06,NW,315,3.0,3.0,98,0.00,,,0.00,meteohub,2013-06-17 13:17:00,
2013-06-17 06:22:00,52.0,51.4,30.06,West,270,2.0,3.0,98,0.00,,,0.00,meteohub,2013-06-17 13:22:00,
2013-06-17 06:27:00,52.3,51.8,30.06,West,270,2.0,3.0,98,0.00,,,0.00,meteohub,2013-06-17 13:27:00,
2013-06-17 06:32:00,52.5,51.6,30.06,West,270,2.0,3.0,97,0.00,,,0.00,meteohub,2013-06-17 13:32:00,
2013-06-17 06:37:00,52.9,52.0,30.06,NW,315,3.0,3.0,97,0.00,,,0.00,meteohub,2013-06-17 13:37:00,
2013-06-17 06:42:00,53.2,52.2,30.06,NW,315,2.0,3.0,96,0.00,,,0.00,meteohub,2013-06-17 13:42:00,
2013-06-17 06:47:00,53.6,52.5,30.06,West,270,2.0,4.0,96,0.00,,,0.00,meteohub,2013-06-17 13:47:00,
2013-06-17 06:52:00,54.0,52.3,30.06,West,270,2.0,4.0,94,0.00,,,0.00,meteohub,2013-06-17 13:52:00,
2013-06-17 06:57:00,54.3,52.0,30.06,NW,315,2.0,3.0,92,0.00,,,0.00,meteohub,2013-06-17 13:57:00,
2013-06-17 07:02:00,54.7,52.2,30.06,West,270,2.0,3.0,91,0.00,,,0.00,meteohub,2013-06-17 14:02:00,
2013-06-17 07:07:00,55.0,52.5,30.06,West,270,2.0,3.0,91,0.00,,,0.00,meteohub,2013-06-17 14:07:00,
2013-06-17 07:12:00,55.2,52.7,30.06,West,270,2.0,3.0,91,0.00,,,0.00,meteohub,2013-06-17 14:12:00,
2013-06-17 07:17:00,55.8,52.9,30.06,West,270,1.0,2.0,90,0.00,,,0.00,meteohub,2013-06-17 14:17:00,
2013-06-17 07:22:00,56.1,52.9,30.06,SW,225,2.0,2.0,89,0.00,,,0.00,meteohub,2013-06-17 14:22:00,
2013-06-17 07:27:00,56.5,52.9,30.06,South,180,1.0,2.0,88,0.00,,,0.00,meteohub,2013-06-17 14:27:00,
2013-06-17 07:32:00,57.0,53.2,30.06,West,270,1.0,2.0,87,0.00,,,0.00,meteohub,2013-06-17 14:32:00,
2013-06-17 07:37:00,57.6,53.1,30.06,East,90,2.0,2.0,85,0.00,,,0.00,meteohub,2013-06-17 14:37:00,
2013-06-17 07:42:00,57.6,52.7,30.06,East,90,2.0,2.0,84,0.00,,,0.00,meteohub,2013-06-17 14:42:00,
2013-06-17 07:47:00,57.7,52.9,30.06,East,90,2.0,2.0,84,0.00,,,0.00,meteohub,2013-06-17 14:47:00,
2013-06-17 07:52:00,58.3,53.4,30.05,East,90,1.0,2.0,84,0.00,,,0.00,meteohub,2013-06-17 14:52:00,
2013-06-17 07:57:00,59.5,53.8,30.06,East,90,2.0,2.0,81,0.00,,,0.00,meteohub,2013-06-17 14:57:00,
2013-06-17 08:02:00,59.9,53.4,30.06,SE,135,3.0,3.0,79,0.00,,,0.00,meteohub,2013-06-17 15:02:00,
2013-06-17 08:07:00,60.8,54.9,30.06,SE,135,2.0,3.0,81,0.00,,,0.00,meteohub,2013-06-17 15:07:00,
2013-06-17 08:12:00,62.8,54.3,30.06,SW,225,3.0,4.0,74,0.00,,,0.00,meteohub,2013-06-17 15:12:00,
2013-06-17 08:17:00,62.6,53.4,30.06,West,270,4.0,4.0,72,0.00,,,0.00,meteohub,2013-06-17 15:17:00,
2013-06-17 08:22:00,61.9,52.7,30.06,SW,225,2.0,4.0,72,0.00,,,0.00,meteohub,2013-06-17 15:22:00,
2013-06-17 08:27:00,62.4,53.6,30.06,NE,45,2.0,4.0,73,0.00,,,0.00,meteohub,2013-06-17 15:27:00,
2013-06-17 08:32:00,64.2,53.8,30.06,NW,315,3.0,4.0,69,0.00,,,0.00,meteohub,2013-06-17 15:32:00,
2013-06-17 08:37:00,65.1,54.7,30.06,East,90,2.0,3.0,69,0.00,,,0.00,meteohub,2013-06-17 15:37:00,
2013-06-17 08:42:00,63.9,54.0,30.06,SE,135,4.0,4.0,70,0.00,,,0.00,meteohub,2013-06-17 15:42:00,
2013-06-17 08:47:00,62.6,53.8,30.06,SE,135,5.0,5.0,73,0.00,,,0.00,meteohub,2013-06-17 15:47:00,
2013-06-17 08:52:00,61.3,53.4,30.05,East,90,3.0,5.0,75,0.00,,,0.00,meteohub,2013-06-17 15:52:00,
2013-06-17 08:57:00,64.4,54.3,30.05,South,180,3.0,5.0,70,0.00,,,0.00,meteohub,2013-06-17 15:57:00,
2013-06-17 09:02:00,65.8,55.0,30.05,South,180,4.0,5.0,68,0.00,,,0.00,meteohub,2013-06-17 16:02:00,
2013-06-17 09:07:00,64.8,54.0,30.05,East,90,5.0,5.0,68,0.00,,,0.00,meteohub,2013-06-17 16:07:00,
2013-06-17 09:12:00,63.1,53.6,30.05,East,90,4.0,5.0,71,0.00,,,0.00,meteohub,2013-06-17 16:12:00,
2013-06-17 09:17:00,63.3,54.1,30.06,SE,135,3.0,6.0,72,0.00,,,0.00,meteohub,2013-06-17 16:17:00,
2013-06-17 09:22:00,64.4,54.0,30.05,East,90,4.0,7.0,69,0.00,,,0.00,meteohub,2013-06-17 16:22:00,
2013-06-17 09:27:00,65.5,53.8,30.05,North,0,4.0,7.0,66,0.00,,,0.00,meteohub,2013-06-17 16:27:00,
2013-06-17 09:32:00,66.6,54.0,30.05,NW,315,4.0,6.0,64,0.00,,,0.00,meteohub,2013-06-17 16:32:00,
2013-06-17 09:37:00,66.4,53.8,30.04,West,270,2.0,4.0,64,0.00,,,0.00,meteohub,2013-06-17 16:37:00,
2013-06-17 09:42:00,66.2,54.9,30.04,SE,135,5.0,5.0,67,0.00,,,0.00,meteohub,2013-06-17 16:42:00,
2013-06-17 09:47:00,66.0,55.2,30.04,SW,225,2.0,8.0,68,0.00,,,0.00,meteohub,2013-06-17 16:47:00,
2013-06-17 09:52:00,66.4,55.6,30.04,South,180,8.0,8.0,68,0.00,,,0.00,meteohub,2013-06-17 16:52:00,
2013-06-17 09:57:00,66.6,55.2,30.04,South,180,3.0,8.0,67,0.00,,,0.00,meteohub,2013-06-17 16:57:00,
2013-06-17 10:02:00,66.7,55.0,30.04,West,270,2.0,8.0,66,0.00,,,0.00,meteohub,2013-06-17 17:02:00,
2013-06-17 10:07:00,66.7,53.8,30.04,SW,225,4.0,8.0,63,0.00,,,0.00,meteohub,2013-06-17 17:07:00,
2013-06-17 10:12:00,66.9,54.9,30.03,South,180,2.0,6.0,65,0.00,,,0.00,meteohub,2013-06-17 17:12:00,
2013-06-17 10:17:00,68.9,55.4,30.03,East,90,2.0,5.0,62,0.00,,,0.00,meteohub,2013-06-17 17:17:00,
2013-06-17 10:22:00,68.9,54.0,30.03,NE,45,4.0,5.0,59,0.00,,,0.00,meteohub,2013-06-17 17:22:00,
2013-06-17 10:27:00,68.4,54.9,30.03,NE,45,3.0,9.0,62,0.00,,,0.00,meteohub,2013-06-17 17:27:00,
2013-06-17 10:32:00,68.2,55.0,30.03,East,90,6.0,9.0,63,0.00,,,0.00,meteohub,2013-06-17 17:32:00,
2013-06-17 10:37:00,67.6,54.7,30.02,NE,45,8.0,9.0,63,0.00,,,0.00,meteohub,2013-06-17 17:37:00,
2013-06-17 10:42:00,68.5,55.0,30.03,North,0,2.0,9.0,62,0.00,,,0.00,meteohub,2013-06-17 17:42:00,
2013-06-17 10:47:00,68.9,54.5,30.03,SW,225,4.0,9.0,60,0.00,,,0.00,meteohub,2013-06-17 17:47:00,
2013-06-17 10:52:00,68.2,54.1,30.02,SE,135,6.0,9.0,61,0.00,,,0.00,meteohub,2013-06-17 17:52:00,
2013-06-17 10:57:00,67.3,53.8,30.02,East,90,5.0,9.0,62,0.00,,,0.00,meteohub,2013-06-17 17:57:00,
2013-06-17 11:02:00,67.6,53.8,30.02,East,90,5.0,9.0,61,0.00,,,0.00,meteohub,2013-06-17 18:02:00,
2013-06-17 11:07:00,67.3,53.8,30.02,NE,45,4.0,9.0,62,0.00,,,0.00,meteohub,2013-06-17 18:07:00,
2013-06-17 11:12:00,68.2,53.2,30.02,NE,45,4.0,8.0,59,0.00,,,0.00,meteohub,2013-06-17 18:12:00,
2013-06-17 11:17:00,68.5,54.1,30.02,ENE,68,3.0,6.0,60,0.00,,,0.00,meteohub,2013-06-17 18:17:00,
2013-06-17 11:22:00,68.9,54.5,30.02,SE,135,2.0,6.0,60,0.00,,,0.00,meteohub,2013-06-17 18:22:00,
2013-06-17 11:27:00,68.9,54.5,30.01,South,180,7.0,7.0,60,0.00,,,0.00,meteohub,2013-06-17 18:27:00,
2013-06-17 11:32:00,69.1,54.1,30.02,West,270,5.0,8.0,59,0.00,,,0.00,meteohub,2013-06-17 18:32:00,
2013-06-17 11:37:00,69.8,54.9,30.01,SE,135,6.0,8.0,59,0.00,,,0.00,meteohub,2013-06-17 18:37:00,
2013-06-17 11:42:00,69.6,54.7,30.01,SW,225,5.0,8.0,59,0.00,,,0.00,meteohub,2013-06-17 18:42:00,
2013-06-17 11:47:00,70.5,53.6,30.01,North,0,5.0,10.0,55,0.00,,,0.00,meteohub,2013-06-17 18:47:00,
2013-06-17 11:52:00,71.6,53.1,30.01,West,270,3.0,10.0,52,0.00,,,0.00,meteohub,2013-06-17 18:52:00,
2013-06-17 11:57:00,72.7,52.9,30.01,East,90,5.0,7.0,50,0.00,,,0.00,meteohub,2013-06-17 18:57:00,
2013-06-17 12:02:00,71.6,53.1,30.01,NE,45,10.0,10.0,52,0.00,,,0.00,meteohub,2013-06-17 19:02:00,
2013-06-17 12:07:00,71.2,51.6,30.01,East,90,8.0,12.0,50,0.00,,,0.00,meteohub,2013-06-17 19:07:00,
2013-06-17 12:12:00,70.7,51.6,30.01,East,90,9.0,12.0,51,0.00,,,0.00,meteohub,2013-06-17 19:12:00,
2013-06-17 12:17:00,71.4,52.3,30.00,SE,135,4.0,12.0,51,0.00,,,0.00,meteohub,2013-06-17 19:17:00,
2013-06-17 12:21:00,72.5,50.5,30.00,SE,135,3.0,11.0,46,0.00,,,0.00,meteohub,2013-06-17 19:21:00,
2013-06-17 12:26:00,73.2,51.3,30.00,SE,135,4.0,11.0,46,0.00,,,0.00,meteohub,2013-06-17 19:26:00,
2013-06-17 12:32:00,73.8,51.6,30.00,ENE,68,7.0,7.0,46,0.00,,,0.00,meteohub,2013-06-17 19:32:00,
2013-06-17 12:37:00,72.7,51.8,29.99,North,0,11.0,11.0,48,0.00,,,0.00,meteohub,2013-06-17 19:37:00,
2013-06-17 12:42:00,72.9,50.9,29.99,NE,45,5.0,11.0,46,0.00,,,0.00,meteohub,2013-06-17 19:42:00,
2013-06-17 12:47:00,73.4,51.4,29.99,North,0,3.0,11.0,46,0.00,,,0.00,meteohub,2013-06-17 19:47:00,
2013-06-17 12:52:00,74.3,50.9,29.99,NE,45,13.0,13.0,44,0.00,,,0.00,meteohub,2013-06-17 19:52:00,
2013-06-17 12:57:00,73.9,52.5,29.99,North,0,6.0,13.0,47,0.00,,,0.00,meteohub,2013-06-17 19:57:00,
2013-06-17 13:02:00,73.2,52.3,29.99,SE,135,6.0,14.0,48,0.00,,,0.00,meteohub,2013-06-17 20:02:00,
2013-06-17 13:07:00,74.3,52.7,29.98,NE,45,8.0,14.0,47,0.00,,,0.00,meteohub,2013-06-17 20:07:00,
2013-06-17 13:12:00,73.8,52.3,29.99,East,90,2.0,14.0,47,0.00,,,0.00,meteohub,2013-06-17 20:12:00,
2013-06-17 13:17:00,73.9,53.1,29.99,NE,45,6.0,10.0,48,0.00,,,0.00,meteohub,2013-06-17 20:17:00,
2013-06-17 13:22:00,74.3,54.0,29.98,NE,45,16.0,16.0,49,0.00,,,0.00,meteohub,2013-06-17 20:22:00,
2013-06-17 13:27:00,73.8,52.9,29.98,NE,45,9.0,16.0,48,0.00,,,0.00,meteohub,2013-06-17 20:27:00,
2013-06-17 13:32:00,73.6,52.2,29.98,NE,45,12.0,16.0,47,0.00,,,0.00,meteohub,2013-06-17 20:32:00,
2013-06-17 13:37:00,73.8,51.6,29.98,North,0,16.0,16.0,46,0.00,,,0.00,meteohub,2013-06-17 20:37:00,
2013-06-17 13:42:00,74.1,52.0,29.98,East,90,8.0,16.0,46,0.00,,,0.00,meteohub,2013-06-17 20:42:00,
2013-06-17 13:47:00,73.6,51.4,29.98,NE,45,9.0,16.0,46,0.00,,,0.00,meteohub,2013-06-17 20:47:00,
2013-06-17 13:52:00,74.8,52.7,29.97,NE,45,4.0,16.0,46,0.00,,,0.00,meteohub,2013-06-17 20:52:00,
2013-06-17 13:57:00,75.6,52.2,29.97,East,90,9.0,14.0,44,0.00,,,0.00,meteohub,2013-06-17 20:57:00,
2013-06-17 14:02:00,75.2,51.1,29.97,North,0,17.0,17.0,43,0.00,,,0.00,meteohub,2013-06-17 21:02:00,
2013-06-17 14:07:00,75.4,50.7,29.97,North,0,17.0,18.0,42,0.00,,,0.00,meteohub,2013-06-17 21:07:00,
2013-06-17 14:12:00,75.2,50.5,29.96,NE,45,12.0,18.0,42,0.00,,,0.00,meteohub,2013-06-17 21:12:00,
2013-06-17 14:17:00,75.0,52.2,29.97,NE,45,19.0,19.0,45,0.00,,,0.00,meteohub,2013-06-17 21:17:00,
2013-06-17 14:22:00,74.8,49.6,29.96,NE,45,15.0,19.0,41,0.00,,,0.00,meteohub,2013-06-17 21:22:00,
2013-06-17 14:27:00,75.0,50.4,29.96,NE,45,17.0,19.0,42,0.00,,,0.00,meteohub,2013-06-17 21:27:00,
2013-06-17 14:32:00,75.2,49.8,29.96,East,90,16.0,21.0,41,0.00,,,0.00,meteohub,2013-06-17 21:32:00,
2013-06-17 14:37:00,74.5,50.5,29.97,East,90,14.0,21.0,43,0.00,,,0.00,meteohub,2013-06-17 21:37:00,
2013-06-17 14:42:00,75.6,50.9,29.96,NNE,23,5.0,18.0,42,0.00,,,0.00,meteohub,2013-06-17 21:42:00,
2013-06-17 14:47:00,76.3,51.4,29.96,East,90,8.0,16.0,42,0.00,,,0.00,meteohub,2013-06-17 21:47:00,
2013-06-17 14:52:00,76.5,51.1,29.95,NE,45,13.0,14.0,41,0.00,,,0.00,meteohub,2013-06-17 21:52:00,
2013-06-17 14:57:00,75.7,51.6,29.96,NE,45,12.0,15.0,43,0.00,,,0.00,meteohub,2013-06-17 21:57:00,
2013-06-17 15:02:00,74.8,50.9,29.96,NE,45,13.0,21.0,43,0.00,,,0.00,meteohub,2013-06-17 22:02:00,
2013-06-17 15:07:00,75.4,52.5,29.95,NE,45,11.0,21.0,45,0.00,,,0.00,meteohub,2013-06-17 22:07:00,
2013-06-17 15:12:00,75.2,51.8,29.95,East,90,15.0,15.0,44,0.00,,,0.00,meteohub,2013-06-17 22:12:00,
2013-06-17 15:17:00,75.2,52.3,29.95,NE,45,13.0,20.0,45,0.00,,,0.00,meteohub,2013-06-17 22:17:00,
2013-06-17 15:22:00,75.4,51.3,29.95,NE,45,18.0,20.0,43,0.00,,,0.00,meteohub,2013-06-17 22:22:00,
2013-06-17 15:27:00,75.4,49.5,29.95,NE,45,17.0,21.0,40,0.00,,,0.00,meteohub,2013-06-17 22:27:00,
2013-06-17 15:32:00,74.5,50.5,29.95,NE,45,11.0,21.0,43,0.00,,,0.00,meteohub,2013-06-17 22:32:00,
2013-06-17 15:37:00,74.8,50.9,29.95,NE,45,15.0,21.0,43,0.00,,,0.00,meteohub,2013-06-17 22:37:00,
2013-06-17 15:42:00,74.5,51.1,29.95,NE,45,20.0,21.0,44,0.00,,,0.00,meteohub,2013-06-17 22:42:00,
2013-06-17 15:47:00,74.7,52.0,29.94,East,90,19.0,20.0,45,0.00,,,0.00,meteohub,2013-06-17 22:47:00,
2013-06-17 15:52:00,75.2,51.1,29.94,NE,45,17.0,20.0,43,0.00,,,0.00,meteohub,2013-06-17 22:52:00,
2013-06-17 15:57:00,75.6,50.9,29.94,East,90,15.0,20.0,42,0.00,,,0.00,meteohub,2013-06-17 22:57:00,
2013-06-17 16:02:00,75.7,53.4,29.94,NE,45,14.0,19.0,46,0.00,,,0.00,meteohub,2013-06-17 23:02:00,
2013-06-17 16:07:00,76.1,52.0,29.94,NE,45,13.0,19.0,43,0.00,,,0.00,meteohub,2013-06-17 23:07:00,
2013-06-17 16:12:00,75.9,51.8,29.94,NE,45,13.0,17.0,43,0.00,,,0.00,meteohub,2013-06-17 23:12:00,
2013-06-17 16:17:00,75.6,50.9,29.94,NE,45,16.0,21.0,42,0.00,,,0.00,meteohub,2013-06-17 23:17:00,
2013-06-17 16:22:00,75.9,52.5,29.93,NE,45,17.0,21.0,44,0.00,,,0.00,meteohub,2013-06-17 23:22:00,
2013-06-17 16:27:00,74.7,51.3,29.94,East,90,17.0,21.0,44,0.00,,,0.00,meteohub,2013-06-17 23:27:00,
2013-06-17 16:32:00,74.5,51.8,29.93,East,90,15.0,20.0,45,0.00,,,0.00,meteohub,2013-06-17 23:32:00,
2013-06-17 16:37:00,74.7,52.0,29.94,East,90,21.0,21.0,45,0.00,,,0.00,meteohub,2013-06-17 23:37:00,
2013-06-17 16:42:00,74.7,52.5,29.94,East,90,20.0,21.0,46,0.00,,,0.00,meteohub,2013-06-17 23:42:00,
2013-06-17 16:47:00,73.8,50.5,29.94,NE,45,17.0,21.0,44,0.00,,,0.00,meteohub,2013-06-17 23:47:00,
2013-06-17 16:52:00,72.7,52.3,29.94,NE,45,12.0,23.0,49,0.00,,,0.00,meteohub,2013-06-17 23:52:00,
2013-06-17 16:57:00,72.1,52.0,29.94,NE,45,12.0,23.0,49,0.00,,,0.00,meteohub,2013-06-17 23:57:00,
2013-06-17 17:02:00,72.5,53.4,29.94,East,90,13.0,22.0,51,0.00,,,0.00,meteohub,2013-06-18 00:02:00,
2013-06-17 17:07:00,72.9,52.5,29.94,NE,45,18.0,18.0,49,0.00,,,0.00,meteohub,2013-06-18 00:07:00,
2013-06-17 17:12:00,72.0,52.3,29.94,NE,45,21.0,23.0,50,0.00,,,0.00,meteohub,2013-06-18 00:12:00,
2013-06-17 17:17:00,71.6,52.0,29.94,NE,45,19.0,27.0,50,0.00,,,0.00,meteohub,2013-06-18 00:17:00,
2013-06-17 17:22:00,71.8,52.7,29.94,NE,45,19.0,27.0,51,0.00,,,0.00,meteohub,2013-06-18 00:22:00,
2013-06-17 17:27:00,71.6,52.0,29.95,NE,45,21.0,27.0,50,0.00,,,0.00,meteohub,2013-06-18 00:27:00,
2013-06-17 17:32:00,71.4,52.3,29.94,ENE,68,21.0,24.0,51,0.00,,,0.00,meteohub,2013-06-18 00:32:00,
2013-06-17 17:37:00,71.6,52.5,29.95,NE,45,20.0,25.0,51,0.00,,,0.00,meteohub,2013-06-18 00:37:00,
2013-06-17 17:42:00,71.8,52.7,29.94,NE,45,16.0,25.0,51,0.00,,,0.00,meteohub,2013-06-18 00:42:00,
2013-06-17 17:47:00,72.0,51.8,29.95,NE,45,21.0,25.0,49,0.00,,,0.00,meteohub,2013-06-18 00:47:00,
2013-06-17 17:52:00,72.0,52.9,29.95,NE,45,20.0,23.0,51,0.00,,,0.00,meteohub,2013-06-18 00:52:00,
2013-06-17 17:57:00,71.1,52.0,29.95,NE,45,23.0,23.0,51,0.00,,,0.00,meteohub,2013-06-18 00:57:00,
2013-06-17 18:02:00,70.7,53.2,29.95,NE,45,21.0,25.0,54,0.00,,,0.00,meteohub,2013-06-18 01:02:00,
2013-06-17 18:07:00,70.0,53.1,29.95,ENE,68,21.0,27.0,55,0.00,,,0.00,meteohub,2013-06-18 01:07:00,
2013-06-17 18:12:00,69.6,53.8,29.96,NE,45,21.0,27.0,57,0.00,,,0.00,meteohub,2013-06-18 01:12:00,
2013-06-17 18:17:00,68.9,54.0,29.96,NE,45,19.0,27.0,59,0.00,,,0.00,meteohub,2013-06-18 01:17:00,
2013-06-17 18:22:00,68.4,54.0,29.96,NE,45,16.0,25.0,60,0.00,,,0.00,meteohub,2013-06-18 01:22:00,
2013-06-17 18:27:00,67.3,54.3,29.96,NE,45,15.0,23.0,63,0.00,,,0.00,meteohub,2013-06-18 01:27:00,
2013-06-17 18:32:00,66.9,53.1,29.96,NE,45,21.0,23.0,61,0.00,,,0.00,meteohub,2013-06-18 01:32:00,
2013-06-17 18:37:00,66.7,53.8,29.96,NE,45,17.0,22.0,63,0.00,,,0.00,meteohub,2013-06-18 01:37:00,
2013-06-17 18:42:00,66.4,53.8,29.97,NE,45,17.0,22.0,64,0.00,,,0.00,meteohub,2013-06-18 01:42:00,
2013-06-17 18:47:00,66.4,53.4,29.97,NE,45,21.0,22.0,63,0.00,,,0.00,meteohub,2013-06-18 01:47:00,
2013-06-17 18:52:00,66.2,53.6,29.97,NE,45,20.0,21.0,64,0.00,,,0.00,meteohub,2013-06-18 01:52:00,
2013-06-17 18:57:00,66.0,53.4,29.97,NE,45,21.0,21.0,64,0.00,,,0.00,meteohub,2013-06-18 01:57:00,
2013-06-17 19:02:00,65.3,53.2,29.97,NE,45,23.0,23.0,65,0.00,,,0.00,meteohub,2013-06-18 02:02:00,
2013-06-17 19:07:00,64.9,53.8,29.98,NE,45,17.0,23.0,67,0.00,,,0.00,meteohub,2013-06-18 02:07:00,
2013-06-17 19:12:00,64.8,53.6,29.98,NE,45,17.0,23.0,67,0.00,,,0.00,meteohub,2013-06-18 02:12:00,
2013-06-17 19:17:00,64.9,53.2,29.98,NE,45,17.0,23.0,66,0.00,,,0.00,meteohub,2013-06-18 02:17:00,
2013-06-17 19:22:00,64.6,53.4,29.98,NE,45,12.0,19.0,67,0.00,,,0.00,meteohub,2013-06-18 02:22:00,
2013-06-17 19:27:00,64.2,53.1,29.98,NE,45,15.0,19.0,67,0.00,,,0.00,meteohub,2013-06-18 02:27:00,
2013-06-17 19:32:00,64.0,53.2,29.98,NE,45,15.0,19.0,68,0.00,,,0.00,meteohub,2013-06-18 02:32:00,
2013-06-17 19:37:00,63.9,53.1,29.98,NE,45,15.0,19.0,68,0.00,,,0.00,meteohub,2013-06-18 02:37:00,
2013-06-17 19:42:00,63.9,53.4,29.99,NE,45,13.0,19.0,69,0.00,,,0.00,meteohub,2013-06-18 02:42:00,
2013-06-17 19:47:00,63.9,53.4,29.98,NE,45,12.0,19.0,69,0.00,,,0.00,meteohub,2013-06-18 02:47:00,
2013-06-17 19:52:00,63.5,53.6,29.99,North,0,11.0,17.0,70,0.00,,,0.00,meteohub,2013-06-18 02:52:00,
2013-06-17 19:57:00,63.1,53.2,29.99,NE,45,16.0,16.0,70,0.00,,,0.00,meteohub,2013-06-18 02:57:00,
2013-06-17 20:02:00,63.0,53.1,29.99,NE,45,16.0,16.0,70,0.00,,,0.00,meteohub,2013-06-18 03:02:00,
2013-06-17 20:07:00,63.0,53.4,29.99,NE,45,14.0,17.0,71,0.00,,,0.00,meteohub,2013-06-18 03:07:00,
2013-06-17 20:12:00,62.8,52.9,29.99,North,0,11.0,17.0,70,0.00,,,0.00,meteohub,2013-06-18 03:12:00,
2013-06-17 20:17:00,62.4,53.2,30.00,North,0,10.0,17.0,72,0.00,,,0.00,meteohub,2013-06-18 03:17:00,
2013-06-17 20:22:00,62.2,53.1,29.99,NE,45,14.0,17.0,72,0.00,,,0.00,meteohub,2013-06-18 03:22:00,
2013-06-17 20:27:00,62.2,52.7,30.00,NE,45,15.0,18.0,71,0.00,,,0.00,meteohub,2013-06-18 03:27:00,
2013-06-17 20:32:00,62.2,52.7,30.01,North,0,15.0,18.0,71,0.00,,,0.00,meteohub,2013-06-18 03:32:00,
2013-06-17 20:37:00,62.1,52.5,30.00,WSW,248,14.0,18.0,71,0.00,,,0.00,meteohub,2013-06-18 03:37:00,
2013-06-17 20:42:00,62.1,52.5,30.00,NE,45,11.0,17.0,71,0.00,,,0.00,meteohub,2013-06-18 03:42:00,
2013-06-17 20:47:00,62.1,52.9,30.00,NE,45,7.0,16.0,72,0.00,,,0.00,meteohub,2013-06-18 03:47:00,
2013-06-17 20:52:00,61.9,52.7,30.01,North,0,10.0,15.0,72,0.00,,,0.00,meteohub,2013-06-18 03:52:00,
2013-06-17 20:57:00,61.5,52.3,30.01,North,0,13.0,15.0,72,0.00,,,0.00,meteohub,2013-06-18 03:57:00,
2013-06-17 21:01:00,61.5,52.7,30.01,NE,45,8.0,13.0,73,0.00,,,0.00,meteohub,2013-06-18 04:01:00,
2013-06-17 21:02:00,61.5,52.7,30.01,NE,45,9.0,13.0,73,0.00,,,0.00,meteohub,2013-06-18 04:02:00,
2013-06-17 21:07:00,61.2,52.5,30.01,NE,45,10.0,13.0,73,0.00,,,0.00,meteohub,2013-06-18 04:07:00,
2013-06-17 21:12:00,61.2,52.5,30.01,NE,45,14.0,14.0,73,0.00,,,0.00,meteohub,2013-06-18 04:12:00,
2013-06-17 21:17:00,61.0,52.7,30.01,North,0,8.0,14.0,74,0.00,,,0.00,meteohub,2013-06-18 04:17:00,
2013-06-17 21:22:00,61.0,52.3,30.01,NE,45,11.0,14.0,73,0.00,,,0.00,meteohub,2013-06-18 04:22:00,
2013-06-17 21:27:00,61.2,52.9,30.01,North,0,13.0,14.0,74,0.00,,,0.00,meteohub,2013-06-18 04:27:00,
2013-06-17 21:32:00,61.0,52.7,30.01,North,0,11.0,14.0,74,0.00,,,0.00,meteohub,2013-06-18 04:32:00,
2013-06-17 21:37:00,61.0,53.1,30.01,North,0,11.0,14.0,75,0.00,,,0.00,meteohub,2013-06-18 04:37:00,
2013-06-17 21:42:00,60.6,53.1,30.01,North,0,8.0,13.0,76,0.00,,,0.00,meteohub,2013-06-18 04:42:00,
2013-06-17 21:47:00,60.4,53.2,30.01,NW,315,8.0,13.0,77,0.00,,,0.00,meteohub,2013-06-18 04:47:00,
2013-06-17 21:52:00,60.3,53.4,30.01,North,0,7.0,13.0,78,0.00,,,0.00,meteohub,2013-06-18 04:52:00,
2013-06-17 21:57:00,60.1,53.2,30.02,North,0,6.0,9.0,78,0.00,,,0.00,meteohub,2013-06-18 04:57:00,
2013-06-17 22:02:00,60.1,53.2,30.02,North,0,6.0,8.0,78,0.00,,,0.00,meteohub,2013-06-18 05:02:00,
2013-06-17 22:07:00,60.1,53.2,30.02,North,0,5.0,8.0,78,0.00,,,0.00,meteohub,2013-06-18 05:07:00,
2013-06-17 22:12:00,60.1,52.9,30.02,North,0,7.0,8.0,77,0.00,,,0.00,meteohub,2013-06-18 05:12:00,
2013-06-17 22:17:00,60.1,52.5,30.02,North,0,7.0,9.0,76,0.00,,,0.00,meteohub,2013-06-18 05:17:00,
2013-06-17 22:22:00,60.1,52.5,30.02,North,0,8.0,9.0,76,0.00,,,0.00,meteohub,2013-06-18 05:22:00,
2013-06-17 22:27:00,60.1,52.5,30.02,North,0,8.0,9.0,76,0.00,,,0.00,meteohub,2013-06-18 05:27:00,
2013-06-17 22:32:00,59.9,52.7,30.02,North,0,6.0,8.0,77,0.00,,,0.00,meteohub,2013-06-18 05:32:00,
2013-06-17 22:37:00,59.9,52.3,30.02,North,0,4.0,8.0,76,0.00,,,0.00,meteohub,2013-06-18 05:37:00,
2013-06-17 22:42:00,59.9,52.0,30.02,North,0,4.0,8.0,75,0.00,,,0.00,meteohub,2013-06-18 05:42:00,
2013-06-17 22:47:00,59.9,52.3,30.02,NNW,338,5.0,8.0,76,0.00,,,0.00,meteohub,2013-06-18 05:47:00,
2013-06-17 22:52:00,59.7,51.8,30.01,North,0,7.0,7.0,75,0.00,,,0.00,meteohub,2013-06-18 05:52:00,
2013-06-17 22:57:00,59.7,52.2,30.02,North,0,5.0,7.0,76,0.00,,,0.00,meteohub,2013-06-18 05:57:00,
2013-06-17 23:02:00,59.5,52.3,30.02,NE,45,5.0,7.0,77,0.00,,,0.00,meteohub,2013-06-18 06:02:00,
2013-06-17 23:07:00,59.5,52.3,30.01,North,0,5.0,7.0,77,0.00,,,0.00,meteohub,2013-06-18 06:07:00,
2013-06-17 23:12:00,59.5,52.7,30.01,North,0,5.0,7.0,78,0.00,,,0.00,meteohub,2013-06-18 06:12:00,
2013-06-17 23:17:00,59.4,52.2,30.01,North,0,4.0,7.0,77,0.00,,,0.00,meteohub,2013-06-18 06:17:00,
2013-06-17 23:22:00,59.4,52.5,30.01,North,0,4.0,7.0,78,0.00,,,0.00,meteohub,2013-06-18 06:22:00,
2013-06-17 23:27:00,59.2,52.3,30.01,North,0,4.0,6.0,78,0.00,,,0.00,meteohub,2013-06-18 06:27:00,
2013-06-17 23:32:00,59.0,52.5,30.01,North,0,4.0,6.0,79,0.00,,,0.00,meteohub,2013-06-18 06:32:00,
2013-06-17 23:37:00,59.0,52.5,30.01,North,0,7.0,7.0,79,0.00,,,0.00,meteohub,2013-06-18 06:37:00,
2013-06-17 23:42:00,58.8,52.0,30.01,North,0,11.0,11.0,78,0.00,,,0.00,meteohub,2013-06-18 06:42:00,
2013-06-17 23:47:00,59.0,52.2,30.01,North,0,10.0,12.0,78,0.00,,,0.00,meteohub,2013-06-18 06:47:00,
2013-06-17 23:52:00,59.0,52.2,30.01,North,0,11.0,12.0,78,0.00,,,0.00,meteohub,2013-06-18 06:52:00,
2013-06-17 23:57:00,59.0,52.2,30.01,North,0,8.0,12.0,78,0.00,,,0.00,meteohub,2013-06-18 06:57:00,